Regional Weather Roundup
Issued by NWS Sterling, VA

Home | Current Version | Previous Version | Text Only | Print | Product List | Glossary On
Versions: 1 2 3 4 5 6 7 8 9 10 11 12 13 14 15 16 17 18 19 20 21 22 23 24 25 26 27 28 29 30 31 32 33 34 35 36 37 38 39 40 41 42 43 44 45 46 47 48 49 50
000
ASUS41 KLWX 182010
RWRLWX

REGIONAL WEATHER ROUNDUP
NATIONAL WEATHER SERVICE BALTIMORE MD/WASHINGTON DC
400 PM EDT THU SEP 18 2014

Note: "FAIR" indicates few or no clouds below 12,000 feet
with no significant weather and/or obstructions to visibility.
 TC=TEMPERATURE CELSIUS

 * =Non NWS site. Station does not report precipitation (e.g. rain,
    snow, etc.), thunder, or fog.

DCZ001-MDZ009-015-VAZ040>042-051-053>054-182100-
WASHINGTON METRO

CITY           SKY/WX    TMP DP  RH WIND       PRES   REMARKS
WASHINGTON NAT PTSUNNY   78  51  38 NW7       30.00S
DULLES         MOSUNNY   76  48  37 W9        30.00F
ANDREWS AFB    MOSUNNY   75  61  61 S6        29.99S
QUANTICO       PTSUNNY   74  62  66 SW8       30.01S
COLLEGE PARK*  CLOUDY    77  55  47 NW7       29.99S
LEESBURG*      SUNNY     77  52  41 W8        30.01F
GAITHERSBURG*  PTSUNNY   72  54  53 CALM      30.04S

$$

MDZ006>007-011-014-182100-
BALTIMORE METRO

CITY           SKY/WX    TMP DP  RH WIND       PRES   REMARKS
BWI AIRPORT    PTSUNNY   71  60  68 NE14      30.01R
MD SCIENCE CTR   N/A     73  58  59 MISG      30.01S
MARTIN STATE   PTSUNNY   68  63  83 CALM      30.03R
ANNAPOLIS      LGT RAIN  67  62  84 NE5       30.01R
FORT MEADE*    CLOUDY    70  59  68 E8        30.03R

$$

MDZ012-015-019>023-182100-
MARYLAND EASTERN SHORE

CITY           SKY/WX    TMP DP  RH WIND       PRES   REMARKS
OCEAN CITY     PTSUNNY   71  53  52 SE6       30.01F
SALISBURY      MOSUNNY   79  55  43 S8        30.00S
BAY BRIDGE AP* DRIZZLE   68  59  73 CALM      30.01S
CAMBRIDGE*     MOSUNNY   73  54  49 S3        30.00S
EASTON*        MOSUNNY   73  57  56 CALM      30.04S

$$

MDZ017>025-182100-
SOUTHERN MARYLAND

CITY           SKY/WX    TMP DP  RH WIND       PRES   REMARKS
PATUXENT RIVER PTSUNNY   71  55  56 SE7       30.01R
ST INIGOES     CLOUDY    72  54  53 SE6       30.00S
LEONARDTOWN*   CLOUDY    72  57  60 SE5       30.02S

$$

MDZ003>005-182100-
NORTH CENTRAL MARYLAND

CITY           SKY/WX    TMP DP  RH WIND       PRES   REMARKS
FREDERICK*     MOSUNNY   79  52  38 NE6       30.03F
HAGERSTOWN APT PTSUNNY   73  45  36 N8        30.02F
WESTMINSTER*   MOSUNNY   73  46  38 N7        30.02F

$$

MDZ501>502-182100-
WESTERN MARYLAND

CITY           SKY/WX    TMP DP  RH WIND       PRES   REMARKS
OAKLAND*       MOSUNNY   59  43  55 N5        30.10S
CUMBERLAND*    MOSUNNY   77  43  29 NE6       30.06S

$$

VAZ025>031-182100-
SHENANDOAH VALLEY

CITY           SKY/WX    TMP DP  RH WIND       PRES   REMARKS
WINCHESTER*    MOSUNNY   77  43  29 NW7       30.01S
STAUNTON*      PTSUNNY   74  51  44 CALM      30.03S

$$

WVZ021-048>050-054>055-182100-
EASTERN WEST VIRGINIA PANHANDLE

CITY           SKY/WX    TMP DP  RH WIND       PRES   REMARKS
MARTINSBURG    MOSUNNY   77  46  33 N8        30.02F
PETERSBURG*    MOSUNNY   74  43  33 CALM      30.02F

$$

VAZ036>039-050-182100-
CENTRAL FOOTHILLS

CITY           SKY/WX    TMP DP  RH WIND       PRES   REMARKS
CHARLOTTESVILL CLOUDY    69  60  73 S5        30.01R
ORANGE*        CLOUDY    72  61  68 E6        30.01F

$$

VAZ055>057-182100-
NORTH AND CENTRAL PIEDMONT

CITY           SKY/WX    TMP DP  RH WIND       PRES   REMARKS
FREDERICKSBRG* PTSUNNY   74  62  66 CALM      29.99F
STAFFORD*      MOSUNNY   73  64  72 SE6       30.04S

$$

NCZ024-NYZ072-PAZ021-071-VAZ022-071-182100-
OTHER REGIONAL OBSERVATIONS

CITY           SKY/WX    TMP DP  RH WIND       PRES   REMARKS
NEW YORK CITY  CLOUDY    72  47  40 CALM      30.01R
PHILADELPHIA   PTSUNNY   70  57  63 W10       30.02R
PITTSBURGH     PTSUNNY   67  44  43 N6G17     30.08F
ROANOKE        PTSUNNY   75  54  47 N5        30.02F
RICHMOND       CLOUDY    74  58  57 SE5       30.00S
RALEIGH        MOSUNNY   80  58  46 CALM      29.98F

$$

ANZ530>537-182100-
MARINE OBSERVATIONS

STATION/POSITION TIME  TEMP    WIND        PRES
                       AIR SEA DIR/SP/G
                 (UTC) (F)     (DEG/KT/KT) (MB)
THOMAS PT LIGHT  2000   71 75  160/  5/  6 1017.1R
BALT KEY BRIDGE  2000   69      20/  9/ 12 1016.0S
COVE POINT       2000   71     180/ 10/ 11 1015.9S
LEWISETTA        2000   71 75  140/  8/  9 1015.7S
SOLOMONS ISLAND  2000      77                N/A
PINEY POINT      2000          160/ 10/ 12   N/A

$$



USA.gov is the U.S. government's official web portal to all federal, state and local government web resources and services.